Location: Nairn
(57.5833°N, 3.8667°W)
Time: 15:35:52
(UTC+00:00)

Vanguard 1 - Visible Passes

Search period start: 26 November 2020 00:00
Search period end: 06 December 2020 00:00
Orbit: 650 x 3833 km, 34.2° (Epoch: 26 November)

Date Brightness Start Highest point End Pass type
(mag) Time Alt. Az. Time Alt. Az. Time Alt. Az.
26 Nov 13.1 05:24:45 10° SE 05:25:07 10° SE 05:25:30 10° SE visible
26 Nov 13.0 07:36:47 10° SSW 07:43:40 21° SSE 07:53:37 10° SE visible
27 Nov 13.0 05:41:57 10° S 05:45:09 12° SSE 05:48:57 10° SE visible
28 Nov 12.8 06:01:12 10° S 06:05:15 14° SSE 06:10:22 10° SE visible
29 Nov 12.8 06:20:58 10° SSW 06:25:27 15° SSE 06:31:19 10° SE visible
30 Nov 12.7 06:41:02 10° SSW 06:45:43 16° SSE 06:51:56 10° SE visible
01 Dec 12.7 07:01:20 10° SSW 07:06:03 16° S 07:12:17 10° SE visible
02 Dec 12.8 07:21:54 10° SSW 07:26:26 15° S 07:32:17 10° SSE visible
03 Dec 12.5 05:26:35 10° S 05:27:55 11° SSE 05:29:22 10° SSE visible
03 Dec 12.9 07:42:49 10° SSW 07:46:51 14° S 07:51:53 10° SSE visible
04 Dec 12.5 05:46:23 10° S 05:48:12 11° SSE 05:50:13 10° SSE visible
05 Dec 12.5 06:06:53 10° S 06:08:32 11° S 06:10:20 10° SSE visible
